Weather History for Newport, RI

Change the Weather History Date:

Thursday, May 9, 2013

  Actual Average Record
Temperature  
Mean Temperature 58 °F -  
Max Temperature 66 °F 60 °F 75 °F (2000)
Min Temperature 51 °F 44 °F 33 °F (1977)
Degree Days  
Heating Degree Days 8    
Growing Degree Days 8 (Base 50)    
Moisture  
Dew Point 56 °F    
Average Humidity 95    
Maximum Humidity 100    
Minimum Humidity 78    
Precipitation  
Precipitation 0.05 in - - ()
Sea Level Pressure  
Sea Level Pressure 29.94 in    
Wind  
Wind Speed 3 mph (SE)    
Max Wind Speed 12 mph    
Max Gust Speed 16 mph    
Visibility 4 miles    
Events Fog , Rain , Thunderstorm    
Averages and records for this station are not official NWS values.
T = Trace of Precipitation, MM = Missing Value Source: NWS Daily Summary

Daily Weather History Graph

Daily Weather History Graph

Search for Another Location

Airport:

Trip Planner

Search our weather history database for the weather conditions in past years. The results will help you decide how hot, cold, wet, or windy it might be!

Date:

Astronomy

May. 09, 2013 Rise Set
Actual Time 5:32 AM EDT 7:51 PM EDT
Civil Twilight 5:01 AM EDT 8:22 PM EDT
Nautical Twilight 4:22 AM EDT 9:01 PM EDT
Astronomical Twilight 3:40 AM EDT 9:43 PM EDT
Moon 5:14 AM EDT (5/9) 7:43 PM EDT (5/9)
Length of Visible Light 15h 21m
Length of Day
14h 19m
Waning Crescent, 0% of the Moon is Illuminated
May 9
Waning Crescent
May 9
New
May 18
First Quarter
May 25
Full
May 31
Last Quarter

Hourly Weather History & Observations

Time (EDT) Temp. Dew Point Humidity Pressure Visibility Wind Dir Wind Speed Gust Speed Precip Events Conditions
12:53 AM 55.0 °F 55.0 °F 100% 30.04 in 0.2 mi Calm Calm - N/A Fog Fog
1:53 AM 55.0 °F 54.0 °F 96% 30.01 in 1.0 mi Calm Calm - N/A   Overcast
2:23 AM 55.4 °F 53.6 °F 94% 30.01 in 0.8 mi Calm Calm - N/A   Overcast
2:53 AM 55.0 °F 54.0 °F 96% 30.00 in 0.2 mi Calm Calm - N/A Fog Fog
3:53 AM 54.0 °F 54.0 °F 100% 29.99 in 0.2 mi Calm Calm - N/A Fog Fog
4:53 AM 55.0 °F 55.0 °F 100% 29.98 in 0.2 mi Calm Calm - N/A Fog Fog
5:25 AM 55.4 °F 55.4 °F 100% 29.98 in 1.5 mi Calm Calm - N/A   Overcast
5:46 AM 55.4 °F 55.4 °F 100% 29.98 in 0.5 mi Calm Calm - N/A Fog Fog
5:53 AM 55.9 °F 55.9 °F 100% 29.97 in 0.5 mi Calm Calm - N/A Fog Fog
6:53 AM 55.9 °F 55.9 °F 100% 29.97 in 0.2 mi Calm Calm - N/A Fog Fog
7:53 AM 57.0 °F 57.0 °F 100% 29.99 in 0.2 mi Calm Calm - 0.00 in Fog Fog
8:15 AM 57.2 °F 57.2 °F 100% 30.00 in 2.0 mi East 4.6 mph - N/A   Overcast
8:28 AM 57.2 °F 57.2 °F 100% 29.99 in 0.8 mi East 3.5 mph - N/A   Overcast
8:53 AM 59.0 °F 57.9 °F 96% 29.98 in 0.5 mi NE 3.5 mph - N/A Fog Fog
9:10 AM 59.0 °F 59.0 °F 100% 29.98 in 1.5 mi Calm Calm - N/A   Overcast
9:19 AM 59.0 °F 59.0 °F 100% 29.97 in 2.5 mi ENE 5.8 mph - N/A   Overcast
9:26 AM 59.0 °F 59.0 °F 100% 29.97 in 4.0 mi Calm Calm - N/A   Overcast
9:53 AM 59.0 °F 59.0 °F 100% 29.98 in 10.0 mi Variable 3.5 mph - N/A   Overcast
10:15 AM 57.2 °F 57.2 °F 100% 29.99 in 2.5 mi SSW 5.8 mph - N/A   Overcast
10:18 AM 57.2 °F 57.2 °F 100% 29.99 in 1.8 mi SSW 5.8 mph - N/A   Overcast
10:28 AM 59.0 °F 57.2 °F 94% 29.98 in 0.5 mi Calm Calm - N/A Fog Fog
10:53 AM 59.0 °F 57.9 °F 96% 29.98 in 0.2 mi NW 3.5 mph - N/A Fog Fog
11:21 AM 59.0 °F 57.2 °F 94% 29.99 in 2.0 mi West 4.6 mph - N/A   Overcast
11:28 AM 60.8 °F 57.2 °F 88% 29.99 in 8.0 mi WNW 5.8 mph - N/A   Overcast
11:53 AM 59.0 °F 57.9 °F 96% 29.97 in 4.0 mi Calm Calm - 0.00 in Rain , Thunderstorm Light Rain
12:01 PM 59.0 °F 57.2 °F 94% 29.97 in 4.0 mi NE 5.8 mph - 0.00 in Rain Light Rain
12:09 PM 60.8 °F 57.2 °F 88% 29.96 in 5.0 mi NNE 5.8 mph - 0.00 in Rain Light Rain
1:53 PM 64.9 °F 57.9 °F 78% 29.94 in 10.0 mi ESE 6.9 mph - N/A   Mostly Cloudy
2:33 PM 62.6 °F 57.2 °F 82% 29.94 in 10.0 mi SE 9.2 mph - N/A   Mostly Cloudy
2:51 PM 59.0 °F 57.2 °F 94% 29.93 in 10.0 mi SE 9.2 mph - N/A   Overcast
2:53 PM 60.1 °F 57.0 °F 90% 29.93 in 10.0 mi SE 9.2 mph - N/A   Overcast
3:32 PM 60.8 °F 57.2 °F 88% 29.90 in 6.0 mi East 6.9 mph - 0.01 in Rain Light Rain
3:42 PM 60.8 °F 59.0 °F 94% 29.90 in 10.0 mi ESE 3.5 mph - 0.01 in Rain , Thunderstorm Light Rain
3:53 PM 61.0 °F 59.0 °F 93% 29.91 in 3.0 mi SE 10.4 mph 16.1 mph 0.05 in Rain , Thunderstorm Light Thunderstorms and Rain
4:01 PM 60.8 °F 57.2 °F 88% 29.90 in 2.5 mi ESE 8.1 mph - 0.00 in Rain , Thunderstorm Light Thunderstorms and Rain
4:05 PM 59.0 °F 57.2 °F 94% 29.90 in 6.0 mi ESE 8.1 mph - 0.00 in Rain , Thunderstorm Light Thunderstorms and Rain
4:53 PM 59.0 °F 57.0 °F 93% 29.89 in 6.0 mi ESE 11.5 mph - 0.00 in   Mostly Cloudy
5:04 PM 60.8 °F 57.2 °F 88% 29.88 in 8.0 mi ESE 10.4 mph - N/A   Mostly Cloudy
5:15 PM 59.0 °F 57.2 °F 94% 29.89 in 10.0 mi ESE 10.4 mph - N/A   Overcast
5:26 PM 60.8 °F 57.2 °F 88% 29.88 in 10.0 mi SE 9.2 mph - N/A   Overcast
5:53 PM 57.9 °F 55.9 °F 93% 29.88 in 9.0 mi SSE 9.2 mph - N/A   Overcast
6:24 PM 55.4 °F 55.4 °F 100% 29.88 in 5.0 mi South 8.1 mph - N/A   Overcast
6:53 PM 55.0 °F 54.0 °F 96% 29.88 in 1.0 mi South 6.9 mph - N/A   Overcast
7:00 PM 55.4 °F 53.6 °F 94% 29.88 in 0.8 mi SSW 5.8 mph - N/A   Overcast
7:32 PM 55.4 °F 53.6 °F 94% 29.90 in 2.0 mi South 4.6 mph - N/A   Overcast
7:53 PM 54.0 °F 53.1 °F 97% 29.90 in 0.8 mi South 4.6 mph - N/A   Overcast
8:53 PM 52.0 °F 52.0 °F 100% 29.91 in 0.5 mi South 8.1 mph - N/A Fog Fog
9:50 PM 51.8 °F 51.8 °F 100% 29.92 in 2.0 mi Calm Calm - N/A   Overcast
10:02 PM 51.8 °F 51.8 °F 100% 29.92 in 0.5 mi SSW 4.6 mph - N/A Fog Fog
10:53 PM 54.0 °F 53.1 °F 97% 29.91 in 0.2 mi SSW 3.5 mph - N/A Fog Fog
11:31 PM 55.4 °F 53.6 °F 94% 29.90 in 1.8 mi Variable 3.5 mph - N/A   Overcast
11:38 PM 55.4 °F 55.4 °F 100% 29.90 in 3.0 mi Calm Calm - N/A   Overcast
11:53 PM 55.0 °F 55.0 °F 100% 29.90 in 4.0 mi Calm Calm - N/A   Overcast